User: anonymous   Login
Location: ??
(31.9467°N, 34.8903°E)
Time: 12:04:13
(UTC+00:00)
Language:

Atlas Centaur 2 - Orbit

View from above orbital plane
View from above orbital plane
View from above satellite
View from above satellite

Ground track
Ground track

The orbit data is extracted from the following two-line orbital elements,

1 00694U 63047A   21137.54415794  .00000518  00000-0  52040-4 0  9991
2 00694  30.3571 211.0344 0584829 207.9809 148.8143 14.02802942884041
Epoch (UTC): 17 May 2021 13:03:35
Eccentricity: 0.0584829
inclination: 30.3571°
perigee height: 459 km
apogee height: 1309 km
right ascension of ascending node: 211.0344°
argument of perigee: 207.9809°
revolutions per day: 14.02802942
mean anomaly at epoch: 148.8143°
orbit number at epoch: 88404

The dashed part of the orbit path shows where the satellite is in the earth's shadow,  

DLR